﻿測定場所 (Monitoring sites),日付 (Measurement date),時間 (Measurement time),線量率 最大値 (max) μGy/h,線量率 最小値 (min) μGy/h,線量率 平均値 (average) μGy/h,
足立 (Adachi),2013-07-07,23:01～24:00,0.0536,0.0477,0.0511,
足立 (Adachi),2013-07-07,22:01～23:00,0.0555,0.0484,0.0511,
足立 (Adachi),2013-07-07,21:01～22:00,0.0542,0.0478,0.0514,
足立 (Adachi),2013-07-07,20:01～21:00,0.0550,0.0495,0.0516,
足立 (Adachi),2013-07-07,19:01～20:00,0.0560,0.0483,0.0523,
足立 (Adachi),2013-07-07,18:01～19:00,0.0583,0.0501,0.0552,
足立 (Adachi),2013-07-07,17:01～18:00,0.0601,0.0493,0.0544,
足立 (Adachi),2013-07-07,16:01～17:00,0.0564,0.0493,0.0529,
足立 (Adachi),2013-07-07,15:01～16:00,0.0568,0.0493,0.0532,
足立 (Adachi),2013-07-07,14:01～15:00,0.0564,0.0485,0.0532,
足立 (Adachi),2013-07-07,13:01～14:00,0.0572,0.0505,0.0532,
足立 (Adachi),2013-07-07,12:01～13:00,0.0565,0.0477,0.0532,
足立 (Adachi),2013-07-07,11:01～12:00,0.0567,0.0497,0.0533,
足立 (Adachi),2013-07-07,10:01～11:00,0.0554,0.0501,0.0529,
足立 (Adachi),2013-07-07,09:01～10:00,0.0575,0.0489,0.0528,
足立 (Adachi),2013-07-07,08:01～09:00,0.0568,0.0495,0.0532,
足立 (Adachi),2013-07-07,07:01～08:00,0.0557,0.0498,0.0525,
足立 (Adachi),2013-07-07,06:01～07:00,0.0553,0.0500,0.0529,
足立 (Adachi),2013-07-07,05:01～06:00,0.0585,0.0483,0.0526,
足立 (Adachi),2013-07-07,04:01～05:00,0.0551,0.0492,0.0524,
足立 (Adachi),2013-07-07,03:01～04:00,0.0559,0.0506,0.0527,
足立 (Adachi),2013-07-07,02:01～03:00,0.0565,0.0499,0.0529,
足立 (Adachi),2013-07-07,01:01～02:00,0.0555,0.0491,0.0526,
足立 (Adachi),2013-07-07,00:01～01:00,0.0581,0.0492,0.0529,
足立 (Adachi),2013-07-06,23:01～24:00,0.0560,0.0503,0.0533,
足立 (Adachi),2013-07-06,22:01～23:00,0.0569,0.0502,0.0531,
足立 (Adachi),2013-07-06,21:01～22:00,0.0559,0.0497,0.0528,
足立 (Adachi),2013-07-06,20:01～21:00,0.0561,0.0481,0.0524,
足立 (Adachi),2013-07-06,19:01～20:00,0.0559,0.0492,0.0527,
足立 (Adachi),2013-07-06,18:01～19:00,0.0563,0.0495,0.0524,
足立 (Adachi),2013-07-06,17:01～18:00,0.0561,0.0477,0.0525,
足立 (Adachi),2013-07-06,16:01～17:00,0.0558,0.0486,0.0525,
足立 (Adachi),2013-07-06,15:01～16:00,0.0553,0.0494,0.0525,
足立 (Adachi),2013-07-06,14:01～15:00,0.0555,0.0490,0.0521,
足立 (Adachi),2013-07-06,13:01～14:00,0.0548,0.0469,0.0518,
足立 (Adachi),2013-07-06,12:01～13:00,0.0552,0.0485,0.0519,
足立 (Adachi),2013-07-06,11:01～12:00,0.0537,0.0463,0.0513,
足立 (Adachi),2013-07-06,10:01～11:00,0.0547,0.0476,0.0512,
足立 (Adachi),2013-07-06,09:01～10:00,0.0546,0.0474,0.0511,
足立 (Adachi),2013-07-06,08:01～09:00,0.0533,0.0474,0.0509,
足立 (Adachi),2013-07-06,07:01～08:00,0.0543,0.0462,0.0510,
足立 (Adachi),2013-07-06,06:01～07:00,0.0541,0.0470,0.0509,
足立 (Adachi),2013-07-06,05:01～06:00,0.0539,0.0482,0.0512,
足立 (Adachi),2013-07-06,04:01～05:00,0.0554,0.0475,0.0510,
足立 (Adachi),2013-07-06,03:01～04:00,0.0573,0.0475,0.0510,
足立 (Adachi),2013-07-06,02:01～03:00,0.0546,0.0485,0.0511,
足立 (Adachi),2013-07-06,01:01～02:00,0.0542,0.0473,0.0513,
足立 (Adachi),2013-07-06,00:01～01:00,0.0537,0.0488,0.0513,
足立 (Adachi),2013-07-05,23:01～24:00,0.0539,0.0471,0.0512,
足立 (Adachi),2013-07-05,22:01～23:00,0.0536,0.0470,0.0505,
足立 (Adachi),2013-07-05,21:01～22:00,0.0543,0.0471,0.0507,
足立 (Adachi),2013-07-05,20:01～21:00,0.0543,0.0480,0.0508,
足立 (Adachi),2013-07-05,19:01～20:00,0.0550,0.0483,0.0509,
足立 (Adachi),2013-07-05,18:01～19:00,0.0550,0.0477,0.0509,
足立 (Adachi),2013-07-05,17:01～18:00,0.0542,0.0474,0.0509,
足立 (Adachi),2013-07-05,16:01～17:00,0.0538,0.0471,0.0502,
足立 (Adachi),2013-07-05,15:01～16:00,0.0540,0.0467,0.0506,
足立 (Adachi),2013-07-05,14:01～15:00,0.0539,0.0477,0.0507,
足立 (Adachi),2013-07-05,13:01～14:00,0.0596,0.0483,0.0536,
足立 (Adachi),2013-07-05,12:01～13:00,0.0621,0.0543,0.0581,
足立 (Adachi),2013-07-05,11:01～12:00,0.0625,0.0552,0.0589,
足立 (Adachi),2013-07-05,10:01～11:00,0.0675,0.0567,0.0611,
足立 (Adachi),2013-07-05,09:01～10:00,0.0613,0.0483,0.0536,
足立 (Adachi),2013-07-05,08:01～09:00,0.0546,0.0470,0.0509,
足立 (Adachi),2013-07-05,07:01～08:00,0.0541,0.0479,0.0504,
足立 (Adachi),2013-07-05,06:01～07:00,0.0544,0.0473,0.0511,
足立 (Adachi),2013-07-05,05:01～06:00,0.0556,0.0486,0.0527,
足立 (Adachi),2013-07-05,04:01～05:00,0.0579,0.0500,0.0533,
足立 (Adachi),2013-07-05,03:01～04:00,0.0555,0.0498,0.0528,
足立 (Adachi),2013-07-05,02:01～03:00,0.0570,0.0494,0.0531,
足立 (Adachi),2013-07-05,01:01～02:00,0.0550,0.0486,0.0518,
足立 (Adachi),2013-07-05,00:01～01:00,0.0538,0.0486,0.0513,
足立 (Adachi),2013-07-04,23:01～24:00,0.0541,0.0497,0.0518,
足立 (Adachi),2013-07-04,22:01～23:00,0.0559,0.0483,0.0519,
足立 (Adachi),2013-07-04,21:01～22:00,0.0566,0.0472,0.0513,
足立 (Adachi),2013-07-04,20:01～21:00,0.0548,0.0487,0.0512,
足立 (Adachi),2013-07-04,19:01～20:00,0.0561,0.0491,0.0523,
足立 (Adachi),2013-07-04,18:01～19:00,0.0544,0.0484,0.0519,
足立 (Adachi),2013-07-04,17:01～18:00,0.0557,0.0476,0.0518,
足立 (Adachi),2013-07-04,16:01～17:00,0.0540,0.0476,0.0514,
足立 (Adachi),2013-07-04,15:01～16:00,0.0562,0.0480,0.0512,
足立 (Adachi),2013-07-04,14:01～15:00,0.0541,0.0488,0.0513,
足立 (Adachi),2013-07-04,13:01～14:00,0.0539,0.0480,0.0509,
足立 (Adachi),2013-07-04,12:01～13:00,0.0552,0.0476,0.0511,
足立 (Adachi),2013-07-04,11:01～12:00,0.0543,0.0476,0.0513,
足立 (Adachi),2013-07-04,10:01～11:00,0.0545,0.0481,0.0512,
足立 (Adachi),2013-07-04,09:01～10:00,0.0540,0.0479,0.0508,
足立 (Adachi),2013-07-04,08:01～09:00,0.0550,0.0483,0.0509,
足立 (Adachi),2013-07-04,07:01～08:00,0.0566,0.0484,0.0516,
足立 (Adachi),2013-07-04,06:01～07:00,0.0566,0.0474,0.0514,
足立 (Adachi),2013-07-04,05:01～06:00,0.0540,0.0481,0.0515,
足立 (Adachi),2013-07-04,04:01～05:00,0.0556,0.0473,0.0514,
足立 (Adachi),2013-07-04,03:01～04:00,0.0552,0.0480,0.0514,
足立 (Adachi),2013-07-04,02:01～03:00,0.0554,0.0485,0.0518,
足立 (Adachi),2013-07-04,01:01～02:00,0.0555,0.0489,0.0524,
足立 (Adachi),2013-07-04,00:01～01:00,0.0553,0.0478,0.0521,
足立 (Adachi),2013-07-03,23:01～24:00,0.0564,0.0476,0.0524,
足立 (Adachi),2013-07-03,22:01～23:00,0.0537,0.0478,0.0514,
足立 (Adachi),2013-07-03,21:01～22:00,0.0557,0.0484,0.0516,
足立 (Adachi),2013-07-03,20:01～21:00,0.0561,0.0487,0.0518,
足立 (Adachi),2013-07-03,19:01～20:00,0.0550,0.0486,0.0519,
足立 (Adachi),2013-07-03,18:01～19:00,0.0559,0.0483,0.0521,
足立 (Adachi),2013-07-03,17:01～18:00,0.0565,0.0492,0.0530,
足立 (Adachi),2013-07-03,16:01～17:00,0.0549,0.0485,0.0517,
足立 (Adachi),2013-07-03,15:01～16:00,0.0547,0.0480,0.0514,
足立 (Adachi),2013-07-03,14:01～15:00,0.0552,0.0467,0.0515,
足立 (Adachi),2013-07-03,13:01～14:00,0.0537,0.0482,0.0510,
足立 (Adachi),2013-07-03,12:01～13:00,0.0538,0.0484,0.0512,
足立 (Adachi),2013-07-03,11:01～12:00,0.0552,0.0486,0.0512,
足立 (Adachi),2013-07-03,10:01～11:00,0.0568,0.0481,0.0513,
足立 (Adachi),2013-07-03,09:01～10:00,0.0541,0.0474,0.0510,
足立 (Adachi),2013-07-03,08:01～09:00,0.0537,0.0465,0.0503,
足立 (Adachi),2013-07-03,07:01～08:00,0.0547,0.0467,0.0507,
足立 (Adachi),2013-07-03,06:01～07:00,0.0544,0.0465,0.0506,
足立 (Adachi),2013-07-03,05:01～06:00,0.0533,0.0485,0.0509,
足立 (Adachi),2013-07-03,04:01～05:00,0.0543,0.0479,0.0508,
足立 (Adachi),2013-07-03,03:01～04:00,0.0554,0.0472,0.0505,
足立 (Adachi),2013-07-03,02:01～03:00,0.0554,0.0479,0.0512,
足立 (Adachi),2013-07-03,01:01～02:00,0.0549,0.0484,0.0512,
足立 (Adachi),2013-07-03,00:01～01:00,0.0552,0.0484,0.0514,
足立 (Adachi),2013-07-02,23:01～24:00,0.0546,0.0483,0.0516,
足立 (Adachi),2013-07-02,22:01～23:00,0.0543,0.0488,0.0517,
足立 (Adachi),2013-07-02,21:01～22:00,0.0560,0.0479,0.0516,
足立 (Adachi),2013-07-02,20:01～21:00,0.0529,0.0489,0.0511,
足立 (Adachi),2013-07-02,19:01～20:00,0.0550,0.0488,0.0512,
足立 (Adachi),2013-07-02,18:01～19:00,0.0539,0.0469,0.0503,
足立 (Adachi),2013-07-02,17:01～18:00,0.0540,0.0468,0.0499,
足立 (Adachi),2013-07-02,16:01～17:00,0.0538,0.0464,0.0498,
足立 (Adachi),2013-07-02,15:01～16:00,0.0543,0.0464,0.0507,
足立 (Adachi),2013-07-02,14:01～15:00,0.0554,0.0462,0.0512,
足立 (Adachi),2013-07-02,13:01～14:00,0.0536,0.0479,0.0513,
足立 (Adachi),2013-07-02,12:01～13:00,0.0536,0.0483,0.0509,
足立 (Adachi),2013-07-02,11:01～12:00,0.0542,0.0470,0.0507,
足立 (Adachi),2013-07-02,10:01～11:00,0.0539,0.0475,0.0507,
足立 (Adachi),2013-07-02,09:01～10:00,0.0538,0.0471,0.0506,
足立 (Adachi),2013-07-02,08:01～09:00,0.0539,0.0468,0.0507,
足立 (Adachi),2013-07-02,07:01～08:00,0.0541,0.0467,0.0504,
足立 (Adachi),2013-07-02,06:01～07:00,0.0528,0.0470,0.0501,
足立 (Adachi),2013-07-02,05:01～06:00,0.0546,0.0459,0.0503,
足立 (Adachi),2013-07-02,04:01～05:00,0.0545,0.0473,0.0503,
足立 (Adachi),2013-07-02,03:01～04:00,0.0545,0.0479,0.0504,
足立 (Adachi),2013-07-02,02:01～03:00,0.0552,0.0470,0.0506,
足立 (Adachi),2013-07-02,01:01～02:00,0.0558,0.0471,0.0505,
足立 (Adachi),2013-07-02,00:01～01:00,0.0538,0.0487,0.0509,
足立 (Adachi),2013-07-01,23:01～24:00,0.0544,0.0477,0.0508,
足立 (Adachi),2013-07-01,22:01～23:00,0.0547,0.0476,0.0512,
足立 (Adachi),2013-07-01,21:01～22:00,0.0550,0.0475,0.0509,
足立 (Adachi),2013-07-01,20:01～21:00,0.0540,0.0474,0.0509,
足立 (Adachi),2013-07-01,19:01～20:00,0.0540,0.0484,0.0511,
足立 (Adachi),2013-07-01,18:01～19:00,0.0542,0.0475,0.0508,
足立 (Adachi),2013-07-01,17:01～18:00,0.0553,0.0479,0.0510,
足立 (Adachi),2013-07-01,16:01～17:00,0.0543,0.0483,0.0509,
足立 (Adachi),2013-07-01,15:01～16:00,0.0538,0.0462,0.0507,
足立 (Adachi),2013-07-01,14:01～15:00,0.0551,0.0455,0.0504,
足立 (Adachi),2013-07-01,13:01～14:00,0.0533,0.0475,0.0506,
足立 (Adachi),2013-07-01,12:01～13:00,0.0534,0.0471,0.0503,
足立 (Adachi),2013-07-01,11:01～12:00,0.0540,0.0483,0.0508,
足立 (Adachi),2013-07-01,10:01～11:00,0.0531,0.0475,0.0508,
足立 (Adachi),2013-07-01,09:01～10:00,0.0534,0.0467,0.0499,
足立 (Adachi),2013-07-01,08:01～09:00,0.0525,0.0460,0.0498,
足立 (Adachi),2013-07-01,07:01～08:00,0.0530,0.0467,0.0501,
足立 (Adachi),2013-07-01,06:01～07:00,0.0533,0.0470,0.0503,
足立 (Adachi),2013-07-01,05:01～06:00,0.0544,0.0466,0.0509,
足立 (Adachi),2013-07-01,04:01～05:00,0.0547,0.0477,0.0510,
足立 (Adachi),2013-07-01,03:01～04:00,0.0539,0.0476,0.0510,
足立 (Adachi),2013-07-01,02:01～03:00,0.0536,0.0472,0.0505,
足立 (Adachi),2013-07-01,01:01～02:00,0.0524,0.0452,0.0504,
足立 (Adachi),2013-07-01,00:01～01:00,0.0542,0.0484,0.0512,
